EW8360 Weather Reports


Display with metric or nautical units.
time (UTC)temp
F
wind
direction
speed
MPH
gust
MPH
rain 1hr
in
rain 24hr
in
rain mn
in
humidity
%
barometer
mb
20260905101453 64 347 1.0 1.0 0.00 0.00 0.00 89 1011.2
20260905100953 64 283 0.0 0.0 0.00 0.00 0.00 89 1011.3
20260905100450 64 320 0.0 0.0 0.00 0.00 0.00 88 1011.2
20260905100039 64 296 0.0 3.0 0.00 0.00 0.00 88 1011.3
20260905095539 64 302 1.0 2.0 0.00 0.00 0.00 88 1011.3
20260905095038 64 300 0.0 0.0 0.00 0.00 0.00 88 1011.4
20260905094540 64 286 0.0 0.0 0.00 0.00 0.00 88 1011.3
20260905094039 64 305 0.0 0.0 0.00 0.00 0.00 88 1011.3
20260905093538 64 305 0.0 0.0 0.00 0.00 0.00 88 1011.4
20260905093038 64 300 0.0 5.0 0.00 0.00 0.00 88 1011.5
20260905092539 64 332 0.0 5.0 0.00 0.00 0.00 88 1011.4
20260905092039 64 342 4.0 5.0 0.00 0.00 0.00 88 1011.4
20260905091538 64 277 0.0 0.0 0.00 0.00 0.00 88 1011.5
20260905091038 64 275 0.0 0.0 0.00 0.00 0.00 88 1011.5
20260905090757 65 282 0.0 2.0 0.00 0.00 0.00 89 1011.3
20260905090039 65 293 0.0 2.0 0.00 0.00 0.00 89 1011.5
20260905085538 65 273 1.0 1.0 0.00 0.00 0.00 88 1011.5
20260905085038 65 272 0.0 2.0 0.00 0.00 0.00 88 1011.5
20260905084539 65 302 2.0 2.0 0.00 0.00 0.00 88 1011.6
20260905084038 65 287 0.0 3.0 0.00 0.00 0.00 88 1011.7
20260905083537 65 339 0.0 3.0 0.00 0.00 0.00 88 1011.6
20260905083037 65 304 0.0 2.0 0.00 0.00 0.00 88 1011.6
20260905082804 65 297 0.0 2.0 0.00 0.00 0.00 87 1011.8
20260905082038 65 310 0.0 5.0 0.00 0.00 0.00 87 1011.9
20260905081537 65 266 0.0 5.0 0.00 0.00 0.00 87 1011.9
20260905081037 65 2 3.0 5.0 0.00 0.00 0.00 88 1012.0
20260905080756 65 267 0.0 6.0 0.00 0.00 0.00 88 1012.0
20260905080038 65 7 2.0 6.0 0.00 0.00 0.00 87 1011.9
20260905075536 66 15 2.0 5.0 0.00 0.00 0.00 87 1012.0
20260905075036 66 291 1.0 3.0 0.00 0.00 0.00 87 1012.0
20260905074537 66 314 0.0 5.0 0.00 0.00 0.00 87 1012.0
20260905074037 66 293 0.0 5.0 0.00 0.00 0.00 86 1012.1
20260905073536 66 28 3.0 5.0 0.00 0.00 0.00 86 1012.1
20260905073035 66 66 2.0 5.0 0.00 0.00 0.00 86 1012.2
20260905072538 66 18 2.0 6.0 0.00 0.00 0.00 86 1012.2
20260905072037 66 21 2.0 6.0 0.00 0.00 0.00 86 1012.2
20260905071536 66 11 2.0 5.0 0.00 0.00 0.00 86 1012.2
20260905070534 66 356 1.0 3.0 0.00 0.00 0.00 86 1012.2
20260905070037 66 295 0.0 0.0 0.00 0.00 0.00 86 1012.3
20260905065535 66 310 0.0 0.0 0.00 0.00 0.00 86 1012.3
20260905064535 66 268 0.0 0.0 0.00 0.00 0.00 86 1012.2
20260905064037 66 271 0.0 0.0 0.00 0.00 0.00 86 1012.3
20260905063535 66 252 0.0 0.0 0.00 0.00 0.00 86 1012.3
20260905062535 66 266 0.0 0.0 0.00 0.00 0.00 86 1012.2
20260905062035 66 272 0.0 0.0 0.00 0.00 0.00 86 1012.2
20260905061535 66 267 0.0 0.0 0.00 0.00 0.00 87 1012.2
20260905061034 66 252 0.0 0.0 0.00 0.00 0.00 86 1012.1
20260905060534 66 249 0.0 0.0 0.00 0.00 0.00 86 1012.2
20260905060035 66 260 0.0 2.0 0.00 0.00 0.00 86 1012.2
20260905055535 66 256 0.0 2.0 0.00 0.00 0.00 85 1012.1
20260905055034 66 278 2.0 2.0 0.00 0.00 0.00 85 1012.1
20260905054534 66 269 0.0 0.0 0.00 0.00 0.00 85 1012.1
20260905054035 66 266 0.0 0.0 0.00 0.00 0.00 85 1012.1
20260905053534 66 269 0.0 0.0 0.00 0.00 0.00 86 1012.1
20260905053032 66 259 0.0 0.0 0.00 0.00 0.00 86 1012.1
20260905052533 66 261 0.0 0.0 0.00 0.00 0.00 86 1012.1
20260905052034 66 251 0.0 0.0 0.00 0.00 0.00 86 1012.1
20260905051534 66 255 0.0 0.0 0.00 0.00 0.00 86 1012.1
20260905051032 66 246 0.0 0.0 0.00 0.00 0.00 86 1012.1
20260905050533 67 245 0.0 0.0 0.00 0.00 0.00 85 1012.1
20260905050034 67 248 0.0 0.0 0.00 0.00 0.00 85 1012.2
20260905045534 67 258 0.0 0.0 0.00 0.00 0.00 85 1012.1
20260905045033 67 264 0.0 2.0 0.00 0.00 0.00 85 1012.0
20260905044532 67 258 1.0 3.0 0.00 0.00 0.00 85 1012.0
20260905044034 67 265 2.0 3.0 0.00 0.00 0.00 85 1012.0
20260905043533 67 262 0.0 2.0 0.00 0.00 0.00 85 1011.9
20260905043032 67 269 0.0 3.0 0.00 0.00 0.00 85 1011.9
20260905042532 67 266 1.0 3.0 0.00 0.00 0.00 85 1011.7
20260905042034 67 261 0.0 2.0 0.00 0.00 0.00 85 1011.6
20260905041533 67 246 1.0 2.0 0.00 0.00 0.00 85 1011.7
20260905041031 67 256 1.0 2.0 0.00 0.00 0.00 85 1011.7
20260905040531 67 259 1.0 3.0 0.00 0.00 0.00 85 1011.6
20260905040031 67 260 1.0 3.0 0.00 0.00 0.00 85 1011.7
20260905035532 67 267 2.0 3.0 0.00 0.00 0.00 84 1011.6
20260905035250 67 259 1.0 3.0 0.00 0.00 0.00 85 1011.6
20260905034531 67 257 1.0 3.0 0.00 0.00 0.00 84 1011.5
20260905034031 67 255 2.0 3.0 0.00 0.00 0.00 85 1011.4
20260905033532 67 255 1.0 5.0 0.00 0.00 0.00 85 1011.4
20260905033031 67 258 0.0 5.0 0.00 0.00 0.00 85 1011.3
20260905032531 67 264 2.0 3.0 0.00 0.00 0.00 85 1011.3
20260905032031 67 282 3.0 3.0 0.00 0.00 0.00 84 1011.3
20260905031531 67 278 3.0 6.0 0.00 0.00 0.00 85 1011.3
20260905031031 67 265 3.0 6.0 0.00 0.00 0.00 84 1011.1
20260905030530 67 274 2.0 6.0 0.00 0.00 0.00 84 1011.1
20260905030250 67 290 3.0 6.0 0.00 0.00 0.00 84 1011.0
20260905025531 67 254 2.0 6.0 0.00 0.00 0.00 84 1011.0
20260905025031 67 309 2.0 6.0 0.00 0.00 0.00 84 1011.0
20260905024530 67 279 3.0 6.0 0.00 0.00 0.00 84 1010.9
20260905024030 67 298 4.0 6.0 0.00 0.00 0.00 83 1011.0
20260905023757 68 255 1.0 6.0 0.00 0.00 0.00 83 1011.0
20260905023030 68 274 3.0 5.0 0.00 0.00 0.00 83 1011.0
20260905022754 68 276 1.0 5.0 0.00 0.00 0.00 83 1011.0
20260905022029 68 273 3.0 6.0 0.00 0.00 0.00 83 1010.8
20260905021534 69 208 1.0 6.0 0.00 0.00 0.00 83 1010.9
20260905021030 69 258 2.0 6.0 0.00 0.00 0.00 82 1010.9
20260905020528 69 303 1.0 6.0 0.00 0.00 0.00 81 1010.8
20260905020029 69 279 3.0 6.0 0.00 0.00 0.00 81 1010.9
20260905015748 70 298 3.0 7.0 0.00 0.00 0.00 80 1010.9
20260905015029 70 301 5.0 7.0 0.00 0.00 0.00 79 1010.9
20260905014527 70 283 2.0 8.0 0.00 0.00 0.00 79 1010.9
20260905014027 71 268 2.0 8.0 0.00 0.00 0.00 78 1010.8
20260905013749 71 282 3.0 8.0 0.00 0.00 0.00 78 1010.7
20260905013028 71 300 2.0 8.0 0.00 0.00 0.00 77 1010.7
20260905012745 71 23 5.0 8.0 0.00 0.00 0.00 76 1010.6
20260905012027 72 315 1.0 8.0 0.00 0.00 0.00 76 1010.7
20260905011528 72 285 2.0 8.0 0.00 0.00 0.00 75 1010.7
20260905011027 72 273 2.0 8.0 0.00 0.00 0.00 75 1010.8
20260905010527 73 288 5.0 7.0 0.00 0.00 0.00 75 1010.8
20260905010027 73 256 1.0 6.0 0.00 0.00 0.00 73 1010.8
20260905005746 73 255 1.0 8.0 0.00 0.00 0.00 74 1010.8
20260905005028 73 263 3.0 8.0 0.00 0.00 0.00 73 1010.7
20260905004527 73 253 3.0 8.0 0.00 0.00 0.00 72 1010.7
20260905004026 73 282 2.0 8.0 0.00 0.00 0.00 72 1010.7
20260905003527 73 328 3.0 7.0 0.00 0.00 0.00 73 1010.8
20260905003027 73 351 3.0 7.0 0.00 0.00 0.00 70 1010.8
20260905002749 73 323 2.0 7.0 0.00 0.00 0.00 72 1010.9
20260905002026 74 336 2.0 7.0 0.00 0.00 0.00 71 1010.7
20260905001526 74 268 3.0 8.0 0.00 0.00 0.00 71 1010.8
20260905001027 74 242 1.0 8.0 0.00 0.00 0.00 70 1010.8
20260905000528 74 304 3.0 7.0 0.00 0.00 0.00 69 1010.8
20260905000026 73 326 3.0 8.0 0.00 0.00 0.00 69 1010.9
20260904235525 73 186 2.0 8.0 0.00 0.00 0.00 69 1010.9
20260904235026 73 7 5.0 7.0 0.00 0.00 0.00 67 1010.9
20260904234527 73 287 2.0 7.0 0.00 0.00 0.00 68 1010.9
20260904234026 73 316 5.0 7.0 0.00 0.00 0.00 68 1011.0
20260904233526 73 302 3.0 9.0 0.00 0.00 0.00 68 1011.0
20260904233027 73 265 2.0 9.0 0.00 0.00 0.00 68 1011.0
20260904232528 73 259 3.0 9.0 0.00 0.00 0.00 67 1010.9
20260904232025 74 227 7.0 9.0 0.00 0.00 0.00 67 1010.9
20260904231525 74 269 3.0 13.0 0.00 0.00 0.00 68 1010.8
20260904231027 74 346 5.0 13.0 0.00 0.00 0.00 67 1011.0
20260904230754 74 315 7.0 12.0 0.00 0.00 0.00 67 1010.9
20260904230026 74 309 4.0 12.0 0.00 0.00 0.00 69 1011.1
20260904225753 74 265 1.0 9.0 0.00 0.00 0.00 65 1011.2
20260904225250 73 265 1.0 9.0 0.00 0.00 0.00 65 1011.1
20260904224245 73 286 3.0 12.0 0.00 0.00 0.00 67 1011.2
20260904223525 74 20 5.0 12.0 0.00 0.00 0.00 67 1011.2
20260904223024 74 267 3.0 12.0 0.00 0.00 0.00 68 1011.3
20260904222525 74 326 5.0 10.0 0.00 0.00 0.00 67 1011.3
20260904222025 74 345 6.0 10.0 0.00 0.00 0.00 68 1011.3
20260904221524 74 340 7.0 10.0 0.00 0.00 0.00 68 1011.5
20260904221024 74 324 6.0 12.0 0.00 0.00 0.00 66 1011.5
20260904220525 74 252 2.0 12.0 0.00 0.00 0.00 66 1011.5
20260904220024 74 313 4.0 9.0 0.00 0.00 0.00 67 1011.5
20260904215524 74 344 4.0 13.0 0.00 0.00 0.00 67 1011.6
20260904215024 74 352 10.0 13.0 0.00 0.00 0.00 67 1011.6
20260904214524 74 292 5.0 13.0 0.00 0.00 0.00 66 1011.6
20260904214024 74 334 5.0 13.0 0.00 0.00 0.00 67 1011.6
20260904213523 74 274 6.0 12.0 0.00 0.00 0.00 67 1011.6
20260904213241 74 356 4.0 12.0 0.00 0.00 0.00 66 1011.6
20260904212800 74 296 4.0 9.0 0.00 0.00 0.00 64 1011.5
20260904212023 74 241 3.0 9.0 0.00 0.00 0.00 67 1011.6
20260904211745 74 287 4.0 10.0 0.00 0.00 0.00 65 1011.6
20260904211023 74 262 5.0 10.0 0.00 0.00 0.00 67 1011.6
20260904210024 74 314 9.0 16.0 0.00 0.00 0.00 69 1011.5
20260904205522 74 4 4.0 14.0 0.00 0.00 0.00 67 1011.6
20260904205024 74 325 9.0 14.0 0.00 0.00 0.00 69 1011.7
20260904204747 74 263 4.0 15.0 0.00 0.00 0.00 65 1011.7
20260904204024 74 239 6.0 15.0 0.00 0.00 0.00 68 1011.8
20260904203523 74 282 7.0 10.0 0.00 0.00 0.00 66 1011.8
20260904203023 74 218 3.0 9.0 0.00 0.00 0.00 67 1011.7
20260904202750 74 341 5.0 9.0 0.00 0.00 0.00 67 1011.7
20260904202019 74 309 5.0 12.0 0.00 0.00 0.00 66 1011.8
20260904201748 74 306 7.0 12.0 0.00 0.00 0.00 67 1011.8
20260904201022 74 335 6.0 16.0 0.00 0.00 0.00 69 1011.7
20260904200022 75 307 13.0 16.0 0.00 0.00 0.00 67 1011.7
20260904195522 75 305 5.0 8.0 0.00 0.00 0.00 65 1011.7
20260904195022 75 319 4.0 13.0 0.00 0.00 0.00 64 1011.9
20260904194524 75 253 4.0 13.0 0.00 0.00 0.00 65 1011.9
20260904194023 75 310 5.0 9.0 0.00 0.00 0.00 65 1012.0
20260904193746 75 3 6.0 9.0 0.00 0.00 0.00 65 1012.0
20260904193020 75 355 7.0 8.0 0.00 0.00 0.00 64 1012.0
20260904192520 75 267 3.0 8.0 0.00 0.00 0.00 63 1012.2
20260904192021 74 278 2.0 10.0 0.00 0.00 0.00 65 1012.2
20260904191521 74 293 5.0 10.0 0.00 0.00 0.00 65 1012.1
20260904191020 74 257 3.0 8.0 0.00 0.00 0.00 64 1012.1
20260904190520 74 279 5.0 7.0 0.00 0.00 0.00 63 1012.2
20260904190022 73 247 2.0 7.0 0.00 0.00 0.00 65 1012.3
20260904185521 73 288 4.0 8.0 0.00 0.00 0.00 65 1012.4
20260904185020 73 260 3.0 10.0 0.00 0.00 0.00 67 1012.4
20260904184520 73 337 4.0 13.0 0.00 0.00 0.00 68 1012.5
20260904184021 73 271 3.0 13.0 0.00 0.00 0.00 66 1012.6
20260904183520 73 317 7.0 15.0 0.00 0.00 0.00 70 1012.6
20260904183020 73 248 6.0 15.0 0.00 0.00 0.00 68 1012.6
20260904182750 73 333 6.0 10.0 0.00 0.00 0.00 68 1012.5
20260904182021 73 348 5.0 10.0 0.00 0.00 0.00 70 1012.5
20260904181742 73 341 4.0 10.0 0.00 0.00 0.00 69 1012.5
20260904181027 73 241 2.0 8.0 0.00 0.00 0.00 69 1012.7
20260904180739 73 350 4.0 10.0 0.00 0.00 0.00 68 1012.5
20260904180020 73 330 6.0 10.0 0.00 0.00 0.00 70 1012.5
20260904175519 73 299 5.0 13.0 0.00 0.00 0.00 70 1012.5
20260904175018 73 263 4.0 13.0 0.00 0.00 0.00 72 1012.6
20260904174519 73 344 8.0 9.0 0.00 0.00 0.00 70 1012.5
20260904174025 73 313 4.0 8.0 0.00 0.00 0.00 70 1012.5
20260904173520 73 264 4.0 8.0 0.00 0.00 0.00 68 1012.5
20260904173241 73 279 2.0 8.0 0.00 0.00 0.00 68 1012.5
20260904172519 73 265 3.0 8.0 0.00 0.00 0.00 68 1012.5
20260904172022 73 322 4.0 8.0 0.00 0.00 0.00 67 1012.6
20260904171521 73 264 4.0 8.0 0.00 0.00 0.00 67 1012.6
20260904171019 73 244 3.0 6.0 0.00 0.00 0.00 64 1012.6
20260904170522 73 229 3.0 6.0 0.00 0.00 0.00 64 1012.5
20260904170020 72 243 1.0 8.0 0.00 0.00 0.00 63 1012.5
20260904165520 72 231 1.0 8.0 0.00 0.00 0.00 66 1012.6
20260904165018 72 273 2.0 8.0 0.00 0.00 0.00 66 1012.4
20260904164020 72 259 3.0 7.0 0.00 0.00 0.00 66 1012.5
20260904163521 72 203 2.0 7.0 0.00 0.00 0.00 68 1012.3
20260904163017 71 311 2.0 6.0 0.00 0.00 0.00 67 1012.2
20260904162738 71 312 1.0 5.0 0.00 0.00 0.00 67 1012.3
20260904162016 71 312 2.0 5.0 0.00 0.00 0.00 68 1012.2
20260904161517 71 314 0.0 5.0 0.00 0.00 0.00 65 1012.3
20260904161018 70 312 0.0 5.0 0.00 0.00 0.00 69 1012.2
20260904160523 70 314 1.0 3.0 0.00 0.00 0.00 69 1012.2
20260904160019 69 314 3.0 3.0 0.00 0.00 0.00 70 1012.1
20260904155519 69 314 1.0 3.0 0.00 0.00 0.00 71 1012.1
20260904155018 69 314 1.0 2.0 0.00 0.00 0.00 71 1012.1
20260904154517 69 313 1.0 3.0 0.00 0.00 0.00 71 1012.2
20260904154238 69 313 2.0 5.0 0.00 0.00 0.00 73 1012.1
20260904153739 69 313 4.0 5.0 0.00 0.00 0.00 74 1012.1
20260904153017 69 313 2.0 3.0 0.00 0.00 0.00 75 1012.0
20260904152516 68 313 2.0 3.0 0.00 0.00 0.00 74 1012.0
20260904152016 68 313 1.0 3.0 0.00 0.00 0.00 75 1012.0
20260904151517 68 313 0.0 2.0 0.00 0.00 0.00 74 1011.9
20260904151017 68 313 2.0 2.0 0.00 0.00 0.00 75 1011.9
20260904150518 67 313 0.0 3.0 0.00 0.00 0.00 73 1011.9
20260904150019 67 313 0.0 3.0 0.00 0.00 0.00 76 1011.9
20260904145515 67 224 0.0 2.0 0.00 0.00 0.00 73 1011.8
20260904145014 67 285 0.0 3.0 0.00 0.00 0.00 76 1011.9
20260904144514 67 315 1.0 3.0 0.00 0.00 0.00 77 1011.8
20260904144014 67 353 0.0 2.0 0.00 0.00 0.00 77 1011.7
20260904143514 67 292 0.0 3.0 0.00 0.00 0.00 76 1011.7
20260904143015 66 28 1.0 5.0 0.00 0.00 0.00 77 1011.7
20260904142736 66 339 1.0 5.0 0.00 0.00 0.00 78 1011.7
20260904142013 66 348 0.0 2.0 0.00 0.00 0.00 76 1011.7
20260904141740 66 230 1.0 3.0 0.00 0.00 0.00 76 1011.6
20260904141016 65 190 2.0 3.0 0.00 0.00 0.00 78 1011.6
20260904140513 65 309 0.0 3.0 0.00 0.00 0.00 79 1011.5
20260904140012 65 259 0.0 3.0 0.00 0.00 0.00 79 1011.6
20260904135513 65 285 1.0 3.0 0.00 0.00 0.00 80 1011.5
20260904135013 65 98 3.0 3.0 0.00 0.00 0.00 80 1011.5
20260904134512 65 215 0.0 2.0 0.00 0.00 0.00 80 1011.5
20260904134019 65 218 1.0 2.0 0.00 0.00 0.00 79 1011.5
20260904133236 65 205 0.0 0.0 0.00 0.00 0.00 79 1011.4
20260904132511 65 232 0.0 0.0 0.00 0.00 0.00 79 1011.3
20260904132012 65 233 0.0 0.0 0.00 0.00 0.00 79 1011.3
20260904131511 65 265 0.0 0.0 0.00 0.00 0.00 79 1011.3
20260904131233 65 297 0.0 0.0 0.00 0.00 0.00 79 1011.1
20260904130512 65 289 0.0 0.0 0.00 0.00 0.00 79 1011.1
20260904130011 65 234 0.0 0.0 0.00 0.00 0.00 79 1011.1
20260904125510 65 222 0.0 0.0 0.00 0.00 0.00 79 1011.0
20260904125012 65 249 0.0 0.0 0.00 0.00 0.00 80 1011.1
20260904124732 65 246 0.0 0.0 0.00 0.00 0.00 80 1011.1
20260904124007 65 239 0.0 1.0 0.00 0.00 0.00 80 1011.1
20260904123510 65 241 0.0 2.0 0.00 0.00 0.00 80 1011.0
20260904123011 65 228 1.0 2.0 0.00 0.00 0.00 80 1011.0
20260904122511 65 230 0.0 1.0 0.00 0.00 0.00 80 1011.0
20260904122010 65 246 0.0 2.0 0.00 0.00 0.00 80 1010.9
20260904121506 65 251 0.0 2.0 0.00 0.00 0.00 80 1010.9
20260904121011 65 228 0.0 0.0 0.00 0.00 0.00 79 1010.9
20260904120511 65 243 0.0 2.0 0.00 0.00 0.00 80 1010.9
20260904120011 65 247 0.0 2.0 0.00 0.00 0.00 80 1011.0
20260904115510 65 258 0.0 0.0 0.00 0.00 0.00 80 1011.2
20260904115010 65 253 0.0 1.0 0.00 0.00 0.00 80 1011.1
20260904114512 65 284 0.0 3.0 0.00 0.00 0.00 79 1011.1
20260904114010 65 327 1.0 3.0 0.00 0.00 0.00 79 1011.0
20260904113509 65 291 0.0 0.0 0.00 0.00 0.00 80 1011.1
20260904113010 65 259 0.0 0.0 0.00 0.00 0.00 81 1011.2
20260904112510 65 258 0.0 0.0 0.00 0.00 0.00 81 1011.2
20260904112009 66 260 0.0 0.0 0.00 0.00 0.00 80 1011.1
20260904111509 66 247 0.0 0.0 0.00 0.00 0.00 80 1011.2
20260904111009 66 251 0.0 1.0 0.00 0.00 0.00 80 1011.2
20260904110509 66 263 0.0 2.0 0.00 0.00 0.00 81 1011.2
20260904110009 66 248 0.0 3.0 0.00 0.00 0.00 81 1011.1
20260904105508 66 261 1.0 3.0 0.00 0.00 0.00 81 1011.2
20260904105009 66 259 0.0 0.0 0.00 0.00 0.00 82 1011.1
20260904104512 66 275 0.0 0.0 0.00 0.00 0.00 82 1011.0
20260904104008 66 258 0.0 0.0 0.00 0.00 0.00 82 1011.1
20260904103732 66 251 0.0 0.0 0.00 0.00 0.00 82 1011.1
20260904103010 66 251 0.0 2.0 0.00 0.00 0.00 82 1011.0
20260904102509 66 264 0.0 2.0 0.00 0.00 0.00 82 1011.1